KD7TTL Weather Reports


Display with metric or nautical units.
time (UTC)temp
F
wind
direction
speed
MPH
gust
MPH
rain 1hr
in
rain 24hr
in
rain mn
in
humidity
%
barometer
mb
20260506102502 49 137 0.0 1.0 0.00 0.00 0.00 94 1018.8
20260506102003 49 137 0.0 0.0 0.00 0.00 0.00 94 1018.8
20260506101505 49 178 0.0 0.0 0.00 0.00 0.00 94 1018.8
20260506101002 49 93 0.0 0.0 0.00 0.00 0.00 94 1018.8
20260506100502 49 93 0.0 0.0 0.00 0.00 0.00 94 1018.8
20260506100005 49 93 0.0 0.0 0.00 0.00 0.00 93 1018.7
20260506095503 49 51 0.0 0.0 0.00 0.00 0.00 93 1018.7
20260506095004 48 51 0.0 0.0 0.00 0.00 0.00 93 1018.7
20260506094503 49 221 0.0 0.0 0.00 0.00 0.00 93 1018.6
20260506094003 49 51 0.0 0.0 0.00 0.00 0.00 93 1018.6
20260506093503 49 9 0.0 0.0 0.00 0.00 0.00 93 1018.6
20260506093016 49 51 0.0 0.0 0.00 0.00 0.00 93 1018.7
20260506092509 49 93 0.0 0.0 0.00 0.00 0.00 93 1018.7
20260506092014 49 51 0.0 0.0 0.00 0.00 0.00 93 1018.7
20260506091525 49 93 0.0 0.0 0.00 0.00 0.00 93 1018.6
20260506091011 49 51 0.0 0.0 0.00 0.00 0.00 93 1018.6
20260506090509 49 51 0.0 1.0 0.00 0.00 0.00 92 1018.6
20260506090023 49 325 0.0 1.0 0.00 0.00 0.00 92 1018.5
20260506085508 49 9 0.0 1.0 0.00 0.00 0.00 93 1018.4
20260506085009 49 9 0.0 1.0 0.00 0.00 0.00 92 1018.3
20260506084558 49 51 0.0 1.0 0.00 0.00 0.00 92 1018.3
20260506084017 49 9 0.0 1.0 0.00 0.00 0.00 92 1018.2
20260506083511 49 9 0.0 1.0 0.00 0.00 0.00 92 1018.1
20260506083026 49 51 0.0 1.0 0.00 0.00 0.00 92 1018.2
20260506082507 49 51 0.0 1.0 0.00 0.00 0.00 92 1018.2
20260506082011 49 68 0.0 1.0 0.00 0.00 0.00 92 1018.2
20260506081534 49 51 0.0 1.0 0.00 0.00 0.00 92 1018.1
20260506081011 49 51 0.0 1.0 0.00 0.00 0.00 91 1018.1
20260506080507 49 51 0.0 1.0 0.00 0.00 0.00 91 1018.1
20260506073510 50 51 0.0 2.0 0.00 0.00 0.00 91 1017.7
20260506073027 50 68 0.0 2.0 0.00 0.00 0.00 91 1017.7
20260506072509 50 51 0.0 1.0 0.00 0.00 0.00 91 1017.7
20260506072013 50 51 0.0 1.0 0.00 0.00 0.00 91 1017.7
20260506071529 50 51 0.0 1.0 0.00 0.00 0.00 91 1017.6
20260506071009 50 34 0.0 1.0 0.00 0.00 0.00 91 1017.6
20260506070508 50 9 0.0 1.0 0.00 0.00 0.00 91 1017.6
20260506062512 51 9 0.0 1.0 0.00 0.00 0.00 90 1017.6
20260506062009 51 51 0.0 1.0 0.00 0.00 0.00 90 1017.6
20260506061526 51 51 0.0 1.0 0.00 0.00 0.00 90 1017.5
20260506061010 52 68 0.0 1.0 0.00 0.00 0.00 90 1017.5
20260506060510 52 51 0.0 1.0 0.00 0.00 0.00 90 1017.5
20260506051013 53 265 0.0 1.0 0.00 0.00 0.00 88 1017.1
20260506050510 54 51 0.0 1.0 0.00 0.00 0.00 87 1016.9
20260506045010 54 67 0.0 1.0 0.00 0.00 0.00 87 1016.8
20260506044523 54 9 0.0 1.0 0.00 0.00 0.00 87 1016.8
20260506044004 55 51 0.0 1.0 0.00 0.00 0.00 86 1016.8
20260506043502 55 51 0.0 1.0 0.00 0.00 0.00 86 1016.8
20260506043004 55 51 0.0 1.0 0.00 0.00 0.00 84 1016.7
20260506042504 56 51 0.0 1.0 0.00 0.00 0.00 84 1016.7
20260506042003 56 51 0.0 1.0 0.00 0.00 0.00 84 1016.7
20260506041504 56 51 0.0 0.0 0.00 0.00 0.00 84 1016.7
20260506041001 56 9 0.0 1.0 0.00 0.00 0.00 83 1016.6
20260506040502 56 51 0.0 1.0 0.00 0.00 0.00 83 1016.6
20260506040006 57 51 0.0 1.0 0.00 0.00 0.00 82 1016.5
20260506035503 57 51 0.0 1.0 0.00 0.00 0.00 82 1016.5
20260506035003 57 93 0.0 1.0 0.00 0.00 0.00 82 1016.5
20260506034504 58 9 0.0 1.0 0.00 0.00 0.00 82 1016.5
20260506034003 58 51 0.0 1.0 0.00 0.00 0.00 81 1016.4
20260506033504 58 9 0.0 1.0 0.00 0.00 0.00 80 1016.4
20260506033007 59 93 0.0 1.0 0.00 0.00 0.00 81 1016.4
20260506032503 59 51 0.0 1.0 0.00 0.00 0.00 79 1016.4
20260506032003 59 51 0.0 1.0 0.00 0.00 0.00 79 1016.4
20260506031504 60 51 0.0 1.0 0.00 0.00 0.00 79 1016.3
20260506031001 60 51 0.0 1.0 0.00 0.00 0.00 78 1016.4
20260506030501 60 34 0.0 1.0 0.00 0.00 0.00 78 1016.3
20260506030005 60 34 0.0 1.0 0.00 0.00 0.00 78 1016.3
20260506025502 60 9 0.0 1.0 0.00 0.00 0.00 77 1016.4
20260506025005 61 51 0.0 1.0 0.00 0.00 0.00 77 1016.4
20260506024505 61 265 0.0 1.0 0.00 0.00 0.00 77 1016.4
20260506024004 61 93 0.0 1.0 0.00 0.00 0.00 76 1016.3
20260506023504 61 309 0.0 1.0 0.00 0.00 0.00 77 1016.3
20260506023003 61 51 0.0 1.0 0.00 0.00 0.00 76 1016.3
20260506022503 61 9 0.0 1.0 0.00 0.00 0.00 75 1016.3
20260506022003 61 93 0.0 1.0 0.00 0.00 0.00 75 1016.3
20260506021505 61 265 0.0 4.0 0.00 0.00 0.00 75 1016.3
20260506021004 61 178 0.0 4.0 0.00 0.00 0.00 74 1016.4
20260506020503 61 144 1.0 2.0 0.00 0.00 0.00 75 1016.3
20260506020003 61 120 0.0 4.0 0.00 0.00 0.00 74 1016.3
20260506015503 62 137 0.0 4.0 0.00 0.00 0.00 75 1016.2
20260506015003 62 178 1.0 4.0 0.00 0.00 0.00 75 1016.2
20260506014504 62 9 0.0 4.0 0.00 0.00 0.00 74 1016.3
20260506014003 62 171 1.0 4.0 0.00 0.00 0.00 74 1016.2
20260506013504 62 120 0.0 4.0 0.00 0.00 0.00 75 1016.2
20260506013010 62 93 1.0 5.0 0.00 0.00 0.00 73 1016.2
20260506012504 62 178 1.0 4.0 0.00 0.00 0.00 74 1016.2
20260506012004 62 170 1.0 4.0 0.00 0.00 0.00 73 1016.2
20260506011504 62 51 0.0 4.0 0.00 0.00 0.00 74 1016.2
20260506011003 62 165 1.0 8.0 0.00 0.00 0.00 74 1016.3
20260506010504 62 151 3.0 8.0 0.00 0.00 0.00 73 1016.3
20260506010012 62 158 0.0 3.0 0.00 0.00 0.00 74 1016.4
20260506005504 62 360 1.0 4.0 0.00 0.00 0.00 73 1016.4
20260506005001 62 193 1.0 8.0 0.00 0.00 0.00 73 1016.3
20260506004511 62 169 1.0 8.0 0.00 0.00 0.00 73 1016.4
20260506004006 62 171 0.0 8.0 0.00 0.00 0.00 72 1016.4
20260506003505 62 265 0.0 8.0 0.00 0.00 0.00 74 1016.4
20260506003010 62 169 2.0 6.0 0.00 0.00 0.00 73 1016.4
20260506002503 62 148 1.0 5.0 0.00 0.00 0.00 74 1016.4
20260506002002 62 22 0.0 4.0 0.00 0.00 0.00 72 1016.5
20260506001513 62 165 1.0 4.0 0.00 0.00 0.00 73 1016.5
20260506001002 62 93 0.0 6.0 0.00 0.00 0.00 74 1016.6
20260506000504 62 158 2.0 6.0 0.00 0.00 0.00 74 1016.7
20260506000012 61 325 1.0 5.0 0.00 0.00 0.00 76 1016.7
20260505235503 61 178 2.0 5.0 0.00 0.00 0.00 77 1016.8
20260505235003 61 105 1.0 5.0 0.00 0.00 0.00 76 1016.8
20260505234515 61 108 3.0 5.0 0.00 0.00 0.00 74 1016.8
20260505234003 61 178 0.0 6.0 0.00 0.00 0.00 75 1016.9
20260505233505 61 146 1.0 6.0 0.00 0.00 0.00 76 1016.9
20260505233010 61 137 1.0 5.0 0.00 0.00 0.00 75 1017.0
20260505232503 61 153 2.0 5.0 0.00 0.00 0.00 75 1017.0
20260505232002 61 47 1.0 5.0 0.00 0.00 0.00 76 1017.1
20260505231522 60 72 0.0 6.0 0.00 0.00 0.00 75 1017.0
20260505231008 61 146 3.0 8.0 0.00 0.00 0.00 76 1017.0
20260505230503 61 171 1.0 8.0 0.00 0.00 0.00 77 1017.1
20260505230021 61 165 2.0 6.0 0.00 0.00 0.00 76 1017.1
20260505225504 61 51 1.0 5.0 0.00 0.00 0.00 79 1017.2
20260505225004 60 93 1.0 5.0 0.00 0.00 0.00 79 1017.1
20260505224515 60 128 1.0 4.0 0.00 0.00 0.00 78 1017.2
20260505224005 60 115 1.0 4.0 0.00 0.00 0.00 77 1017.2
20260505223507 60 126 0.0 4.0 0.00 0.00 0.00 78 1017.2
20260505223011 60 129 1.0 5.0 0.00 0.00 0.00 77 1017.2
20260505222502 60 146 3.0 5.0 0.00 0.00 0.00 78 1017.3
20260505222003 60 126 1.0 5.0 0.00 0.00 0.00 78 1017.3
20260505221510 60 120 2.0 4.0 0.00 0.00 0.00 77 1017.3
20260505221002 60 153 1.0 2.0 0.00 0.00 0.00 79 1017.3
20260505220503 60 162 1.0 4.0 0.00 0.00 0.00 80 1017.4
20260505220017 60 178 1.0 4.0 0.00 0.00 0.00 80 1017.4
20260505215505 60 178 1.0 5.0 0.00 0.00 0.00 79 1017.4
20260505215007 59 164 2.0 5.0 0.00 0.00 0.00 79 1017.4
20260505214512 59 93 1.0 3.0 0.00 0.00 0.00 79 1017.5
20260505214002 59 9 0.0 5.0 0.00 0.00 0.00 82 1017.4
20260505213504 59 178 1.0 5.0 0.00 0.00 0.00 81 1017.5
20260505213022 59 129 1.0 4.0 0.00 0.00 0.00 80 1017.5
20260505212507 58 93 0.0 6.0 0.00 0.00 0.00 81 1017.5
20260505212007 58 150 1.0 7.0 0.00 0.00 0.00 80 1017.5
20260505211514 59 140 2.0 6.0 0.00 0.00 0.00 80 1017.5
20260505211006 58 68 1.0 5.0 0.00 0.00 0.00 81 1017.5
20260505210503 58 68 1.0 5.0 0.00 0.00 0.00 81 1017.5
20260505210017 58 146 2.0 4.0 0.00 0.00 0.00 80 1017.5
20260505205509 58 158 1.0 4.0 0.00 0.00 0.00 82 1017.6
20260505205008 58 80 1.0 5.0 0.00 0.00 0.00 81 1017.6
20260505204514 58 158 2.0 5.0 0.00 0.00 0.00 81 1017.6
20260505204004 58 108 0.0 6.0 0.00 0.00 0.00 82 1017.6
20260505203507 58 178 1.0 6.0 0.00 0.00 0.00 81 1017.6
20260505203027 58 47 0.0 3.0 0.00 0.00 0.00 82 1017.6
20260505202506 58 309 0.0 6.0 0.00 0.00 0.00 82 1017.6
20260505202006 58 41 2.0 5.0 0.00 0.00 0.00 81 1017.5
20260505201528 58 120 0.0 5.0 0.00 0.00 0.00 84 1017.5
20260505201006 57 68 1.0 5.0 0.00 0.00 0.00 83 1017.5
20260505200508 57 76 1.0 5.0 0.00 0.00 0.00 84 1017.5
20260505200022 57 61 1.0 4.0 0.00 0.00 0.00 83 1017.6
20260505195511 57 141 1.0 3.0 0.00 0.00 0.00 84 1017.6
20260505195005 57 123 1.0 3.0 0.00 0.00 0.00 84 1017.6
20260505194518 57 55 1.0 3.0 0.00 0.00 0.00 83 1017.5
20260505194010 57 153 1.0 3.0 0.00 0.00 0.00 83 1017.5
20260505193506 57 120 1.0 3.0 0.00 0.00 0.00 83 1017.5
20260505193029 57 309 0.0 3.0 0.00 0.00 0.00 84 1017.5
20260505192509 57 51 1.0 3.0 0.00 0.00 0.00 84 1017.5
20260505192003 57 153 1.0 2.0 0.00 0.00 0.00 84 1017.5
20260505191509 57 309 0.0 3.0 0.00 0.00 0.00 84 1017.4
20260505191005 57 68 1.0 5.0 0.00 0.00 0.00 83 1017.4
20260505190505 57 120 1.0 5.0 0.00 0.00 0.00 82 1017.4
20260505190006 57 144 1.0 7.0 0.00 0.00 0.00 82 1017.4
20260505185505 57 162 2.0 7.0 0.00 0.00 0.00 83 1017.4
20260505185003 57 153 1.0 6.0 0.00 0.00 0.00 85 1017.4
20260505184507 57 137 2.0 5.0 0.00 0.00 0.00 84 1017.4
20260505184002 57 139 2.0 5.0 0.00 0.00 0.00 84 1017.4
20260505183504 57 221 1.0 4.0 0.00 0.00 0.00 85 1017.4
20260505183011 57 111 1.0 4.0 0.00 0.00 0.00 86 1017.4
20260505182503 56 178 0.0 4.0 0.00 0.00 0.00 86 1017.5
20260505182003 56 153 1.0 6.0 0.00 0.00 0.00 86 1017.4
20260505181504 56 131 1.0 6.0 0.00 0.00 0.00 85 1017.4
20260505181004 56 167 2.0 5.0 0.00 0.00 0.00 85 1017.4
20260505180503 56 165 2.0 5.0 0.00 0.00 0.00 85 1017.3
20260505180003 56 76 0.0 2.0 0.00 0.00 0.00 86 1017.4
20260505175503 56 34 0.0 2.0 0.00 0.00 0.00 86 1017.4
20260505175003 56 162 0.0 2.0 0.00 0.00 0.00 86 1017.4
20260505174507 56 26 1.0 2.0 0.00 0.00 0.00 87 1017.4
20260505174003 56 137 0.0 2.0 0.00 0.00 0.00 87 1017.5
20260505173504 56 120 0.0 2.0 0.00 0.00 0.00 87 1017.4
20260505173022 55 51 0.0 2.0 0.00 0.00 0.00 87 1017.4
20260505172504 55 51 0.0 2.0 0.00 0.00 0.00 88 1017.4
20260505172012 55 178 1.0 2.0 0.00 0.00 0.00 87 1017.4
20260505171520 55 119 0.0 2.0 0.00 0.00 0.00 87 1017.3
20260505171007 55 51 1.0 3.0 0.00 0.00 0.00 86 1017.4
20260505170511 56 137 0.0 5.0 0.00 0.00 0.00 88 1017.4
20260505170024 56 144 2.0 5.0 0.00 0.00 0.00 87 1017.4
20260505165506 56 178 1.0 4.0 0.00 0.00 0.00 88 1017.4
20260505165012 56 137 1.0 4.0 0.00 0.00 0.00 87 1017.3
20260505164520 55 120 0.0 4.0 0.00 0.00 0.00 87 1017.3
20260505164008 55 137 1.0 4.0 0.00 0.00 0.00 88 1017.3
20260505163508 55 162 0.0 4.0 0.00 0.00 0.00 88 1017.2
20260505163029 55 41 0.0 4.0 0.00 0.00 0.00 87 1017.2
20260505162506 55 221 0.0 4.0 0.00 0.00 0.00 87 1017.2
20260505162011 55 209 0.0 4.0 0.00 0.00 0.00 88 1017.3
20260505161520 55 142 1.0 4.0 0.00 0.00 0.00 88 1017.2
20260505161010 55 178 0.0 4.0 0.00 0.00 0.00 88 1017.2
20260505160507 55 128 1.0 5.0 0.00 0.00 0.00 87 1017.1
20260505153023 54 51 0.0 2.0 0.00 0.00 0.00 89 1017.0
20260505152509 54 51 1.0 2.0 0.00 0.00 0.00 89 1017.0
20260505152010 54 205 1.0 2.0 0.00 0.00 0.00 89 1017.0
20260505151523 54 51 0.0 4.0 0.00 0.00 0.00 90 1016.9
20260505151010 53 153 1.0 4.0 0.00 0.00 0.00 90 1016.8
20260505150509 53 93 0.0 2.0 0.00 0.00 0.00 90 1016.8
20260505140510 51 221 0.0 2.0 0.00 0.00 0.00 94 1016.4
20260505125003 48 68 0.0 1.0 0.00 0.00 0.00 93 1015.7
20260505124505 47 76 0.0 2.0 0.00 0.00 0.00 93 1015.6
20260505124003 47 221 0.0 2.0 0.00 0.00 0.00 93 1015.6
20260505123504 47 178 0.0 1.0 0.00 0.00 0.00 93 1015.6
20260505123002 47 51 0.0 1.0 0.00 0.00 0.00 92 1015.5
20260505122503 47 309 0.0 1.0 0.00 0.00 0.00 92 1015.4
20260505122003 46 51 0.0 1.0 0.00 0.00 0.00 92 1015.4
20260505121507 46 68 0.0 2.0 0.00 0.00 0.00 91 1015.4
20260505121003 46 68 0.0 2.0 0.00 0.00 0.00 91 1015.4
20260505120503 46 51 0.0 1.0 0.00 0.00 0.00 91 1015.4
20260505120003 46 51 0.0 1.0 0.00 0.00 0.00 90 1015.3
20260505115503 46 76 0.0 1.0 0.00 0.00 0.00 90 1015.2
20260505115003 46 93 0.0 1.0 0.00 0.00 0.00 89 1015.2
20260505114504 46 137 0.0 1.0 0.00 0.00 0.00 89 1015.1
20260505114004 46 68 0.0 1.0 0.00 0.00 0.00 89 1015.1
20260505113502 47 68 0.0 1.0 0.00 0.00 0.00 89 1015.1
20260505113012 47 93 0.0 1.0 0.00 0.00 0.00 89 1015.1
20260505112502 47 93 0.0 1.0 0.00 0.00 0.00 89 1015.0
20260505112005 47 51 0.0 1.0 0.00 0.00 0.00 89 1015.0
20260505111502 47 68 0.0 1.0 0.00 0.00 0.00 89 1015.0
20260505111002 47 51 0.0 1.0 0.00 0.00 0.00 89 1014.9
20260505110503 47 51 0.0 1.0 0.00 0.00 0.00 88 1014.9